I4GOS-3 Weather Reports


Display with metric or nautical units.
time (UTC)temp
F
wind
direction
speed
MPH
gust
MPH
rain 1hr
in
rain 24hr
in
rain mn
in
humidity
%
barometer
mb
20260509153823 70 70 3.0 0.0 0.00 0.00 0.00 58 1015.6
20260509153323 70 112 4.0 0.0 0.00 0.00 0.00 58 1015.7
20260509152822 70 76 2.0 0.0 0.00 0.00 0.00 58 1015.7
20260509152356 70 56 2.0 0.0 0.00 0.00 0.00 57 1015.7
20260509152321 70 56 2.0 0.0 0.00 0.00 0.00 57 1015.7
20260509151858 70 97 5.0 0.0 0.00 0.00 0.00 58 1015.7
20260509151821 70 97 5.0 0.0 0.00 0.00 0.00 58 1015.7
20260509151321 70 106 5.0 0.0 0.00 0.00 0.00 58 1015.8
20260509150821 71 77 4.0 0.0 0.00 0.00 0.00 55 1015.8
20260509150320 71 75 3.0 0.0 0.00 0.00 0.00 53 1015.8
20260509145820 71 79 5.0 0.0 0.00 0.00 0.00 52 1015.7
20260509145320 71 79 5.0 0.0 0.00 0.00 0.00 52 1015.7
20260509144820 71 54 2.0 0.0 0.00 0.00 0.00 53 1015.8
20260509143858 72 81 6.0 0.0 0.00 0.00 0.00 53 1015.8
20260509143818 72 81 6.0 0.0 0.00 0.00 0.00 53 1015.8
20260509143317 72 77 7.0 0.0 0.00 0.00 0.00 52 1015.8
20260509142817 72 57 8.0 0.0 0.00 0.00 0.00 54 1015.9
20260509142317 72 46 4.0 0.0 0.00 0.00 0.00 50 1015.9
20260509141848 73 66 5.0 0.0 0.00 0.00 0.00 54 1016.0
20260509141817 73 66 5.0 0.0 0.00 0.00 0.00 54 1016.0
20260509141316 72 53 5.0 0.0 0.00 0.00 0.00 52 1016.1
20260509140816 72 45 3.0 0.0 0.00 0.00 0.00 54 1016.1
20260509140316 72 54 5.0 0.0 0.00 0.00 0.00 53 1016.1
20260509135816 72 79 0.0 0.0 0.00 0.00 0.00 50 1016.1
20260509135350 72 83 3.0 0.0 0.00 0.00 0.00 52 1016.1
20260509135316 72 83 3.0 0.0 0.00 0.00 0.00 52 1016.1
20260509134815 72 63 2.0 0.0 0.00 0.00 0.00 50 1016.1
20260509134524 71 85 6.0 0.0 0.00 0.00 0.00 51 1016.1
20260509134315 71 85 6.0 0.0 0.00 0.00 0.00 51 1016.1
20260509133851 72 34 4.0 0.0 0.00 0.00 0.00 52 1016.2
20260509133815 72 34 4.0 0.0 0.00 0.00 0.00 52 1016.2
20260509133508 71 65 7.0 0.0 0.00 0.00 0.00 52 1016.2
20260509133315 71 65 7.0 0.0 0.00 0.00 0.00 52 1016.2
20260509132857 71 81 6.0 0.0 0.00 0.00 0.00 54 1016.2
20260509132814 71 81 6.0 0.0 0.00 0.00 0.00 54 1016.2
20260509132411 71 50 2.0 0.0 0.00 0.00 0.00 52 1016.3
20260509132314 71 50 2.0 0.0 0.00 0.00 0.00 52 1016.3
20260509131814 71 45 0.0 0.0 0.00 0.00 0.00 52 1016.3
20260509131314 71 42 4.0 0.0 0.00 0.00 0.00 45 1016.4
20260509130813 71 50 3.0 0.0 0.00 0.00 0.00 50 1016.5
20260509130313 71 22 0.0 0.0 0.00 0.00 0.00 52 1016.5
20260509125813 70 40 4.0 0.0 0.00 0.00 0.00 51 1016.6
20260509125313 70 45 1.0 0.0 0.00 0.00 0.00 53 1016.6
20260509124812 71 27 5.0 0.0 0.00 0.00 0.00 51 1016.7
20260509124312 71 39 2.0 0.0 0.00 0.00 0.00 54 1016.5
20260509123812 70 342 0.0 0.0 0.00 0.00 0.00 56 1016.6
20260509123312 70 52 1.0 0.0 0.00 0.00 0.00 56 1016.7
20260509122901 70 4 2.0 0.0 0.00 0.00 0.00 59 1016.7
20260509122812 70 4 2.0 0.0 0.00 0.00 0.00 59 1016.7
20260509122311 70 52 4.0 0.0 0.00 0.00 0.00 57 1016.7
20260509121811 70 308 1.0 0.0 0.00 0.00 0.00 56 1016.7
20260509121311 70 18 4.0 0.0 0.00 0.00 0.00 56 1016.7
20260509120811 70 14 0.0 0.0 0.00 0.00 0.00 58 1016.8
20260509120310 70 24 5.0 0.0 0.00 0.00 0.00 58 1016.8
20260509115842 70 326 4.0 0.0 0.00 0.00 0.00 60 1016.8
20260509115810 70 326 4.0 0.0 0.00 0.00 0.00 60 1016.8
20260509115356 70 60 4.0 0.0 0.00 0.00 0.00 58 1016.8
20260509115310 70 60 4.0 0.0 0.00 0.00 0.00 58 1016.8
20260509114900 71 37 5.0 0.0 0.00 0.00 0.00 58 1016.8
20260509114810 71 37 5.0 0.0 0.00 0.00 0.00 58 1016.8
20260509114309 71 359 0.0 0.0 0.00 0.00 0.00 57 1017.0
20260509113809 70 37 5.0 0.0 0.00 0.00 0.00 61 1017.0
20260509113309 70 347 1.0 0.0 0.00 0.00 0.00 58 1017.0
20260509112904 71 328 5.0 0.0 0.00 0.00 0.00 59 1017.0
20260509112809 71 328 5.0 0.0 0.00 0.00 0.00 59 1017.0
20260509112309 71 322 3.0 0.0 0.00 0.00 0.00 59 1017.0
20260509111808 71 339 7.0 0.0 0.00 0.00 0.00 61 1016.9
20260509111308 70 25 1.0 0.0 0.00 0.00 0.00 60 1017.0
20260509110808 71 18 4.0 0.0 0.00 0.00 0.00 60 1017.0
20260509110308 71 354 6.0 0.0 0.00 0.00 0.00 62 1017.1
20260509105807 70 312 4.0 0.0 0.00 0.00 0.00 62 1017.1
20260509105307 70 359 3.0 0.0 0.00 0.00 0.00 62 1017.2
20260509104807 70 330 0.0 0.0 0.00 0.00 0.00 63 1017.2
20260509104403 70 321 7.0 0.0 0.00 0.00 0.00 64 1017.3
20260509104307 70 321 7.0 0.0 0.00 0.00 0.00 64 1017.3
20260509103806 70 315 0.0 0.0 0.00 0.00 0.00 65 1017.4
20260509103440 69 354 2.0 0.0 0.00 0.00 0.00 66 1017.4
20260509103306 69 354 2.0 0.0 0.00 0.00 0.00 66 1017.4
20260509102806 69 337 0.0 0.0 0.00 0.00 0.00 67 1017.4
20260509102306 68 8 2.0 0.0 0.00 0.00 0.00 66 1017.4
20260509101806 69 29 2.0 0.0 0.00 0.00 0.00 67 1017.4
20260509101446 68 33 3.0 0.0 0.00 0.00 0.00 66 1017.4
20260509101305 68 33 3.0 0.0 0.00 0.00 0.00 66 1017.4
20260509100838 68 10 5.0 0.0 0.00 0.00 0.00 66 1017.4
20260509100805 68 10 5.0 0.0 0.00 0.00 0.00 66 1017.4
20260509100356 69 29 0.0 0.0 0.00 0.00 0.00 67 1017.4
20260509100305 69 29 0.0 0.0 0.00 0.00 0.00 67 1017.4
20260509095805 69 328 5.0 0.0 0.00 0.00 0.00 66 1017.4
20260509095413 69 20 4.0 0.0 0.00 0.00 0.00 67 1017.5
20260509095306 69 20 4.0 0.0 0.00 0.00 0.00 67 1017.5
20260509094804 68 322 3.0 0.0 0.00 0.00 0.00 68 1017.5
20260509094352 68 339 5.0 0.0 0.00 0.00 0.00 69 1017.6
20260509094304 68 339 5.0 0.0 0.00 0.00 0.00 69 1017.6
20260509093804 68 327 1.0 0.0 0.00 0.00 0.00 68 1017.5
20260509093304 68 354 0.0 0.0 0.00 0.00 0.00 68 1017.5
20260509092803 68 317 0.0 0.0 0.00 0.00 0.00 69 1017.6
20260509092418 68 341 4.0 0.0 0.00 0.00 0.00 69 1017.4
20260509092305 68 341 4.0 0.0 0.00 0.00 0.00 69 1017.4
20260509091803 68 4 1.0 0.0 0.00 0.00 0.00 69 1017.4
20260509091303 68 359 3.0 0.0 0.00 0.00 0.00 70 1017.4
20260509090802 68 359 6.0 0.0 0.00 0.00 0.00 68 1017.3
20260509090356 68 347 4.0 0.0 0.00 0.00 0.00 68 1017.4
20260509090302 68 347 4.0 0.0 0.00 0.00 0.00 68 1017.4
20260509085802 68 323 0.0 0.0 0.00 0.00 0.00 68 1017.5
20260509085302 68 295 0.0 0.0 0.00 0.00 0.00 68 1017.5
20260509084801 68 323 4.0 0.0 0.00 0.00 0.00 68 1017.5
20260509084301 68 328 0.0 0.0 0.00 0.00 0.00 68 1017.5
20260509083801 68 324 2.0 0.0 0.00 0.00 0.00 69 1017.6
20260509083301 68 312 4.0 0.0 0.00 0.00 0.00 69 1017.6
20260509082800 68 359 4.0 0.0 0.00 0.00 0.00 69 1017.5
20260509082300 67 345 0.0 0.0 0.00 0.00 0.00 70 1017.5
20260509081800 67 342 0.0 0.0 0.00 0.00 0.00 70 1017.6
20260509081300 67 299 0.0 0.0 0.00 0.00 0.00 70 1017.6
20260509080800 67 359 4.0 0.0 0.00 0.00 0.00 70 1017.6
20260509080300 68 343 0.0 0.0 0.00 0.00 0.00 70 1017.7
20260509075759 68 10 0.0 0.0 0.00 0.00 0.00 69 1017.6
20260509075259 68 297 0.0 0.0 0.00 0.00 0.00 70 1017.6
20260509074759 68 359 0.0 0.0 0.00 0.00 0.00 71 1017.7
20260509074258 68 347 0.0 0.0 0.00 0.00 0.00 70 1017.7
20260509073758 68 8 0.0 0.0 0.00 0.00 0.00 70 1017.7
20260509073258 67 294 0.0 0.0 0.00 0.00 0.00 70 1017.7
20260509072758 67 304 0.0 0.0 0.00 0.00 0.00 71 1017.7
20260509072257 67 288 0.0 0.0 0.00 0.00 0.00 71 1017.7
20260509071757 66 278 0.0 0.0 0.00 0.00 0.00 71 1017.6
20260509071334 67 291 0.0 0.0 0.00 0.00 0.00 72 1017.7
20260509071257 67 291 0.0 0.0 0.00 0.00 0.00 72 1017.7
20260509070832 66 282 0.0 0.0 0.00 0.00 0.00 72 1017.6
20260509070757 66 282 0.0 0.0 0.00 0.00 0.00 72 1017.6
20260509070257 66 326 0.0 0.0 0.00 0.00 0.00 73 1017.6
20260509065756 65 303 0.0 0.0 0.00 0.00 0.00 73 1017.6
20260509065256 65 218 0.0 0.0 0.00 0.00 0.00 73 1017.5
20260509064756 65 216 0.0 0.0 0.00 0.00 0.00 74 1017.5
20260509064256 65 217 0.0 0.0 0.00 0.00 0.00 74 1017.5
20260509063755 65 212 0.0 0.0 0.00 0.00 0.00 74 1017.6
20260509063255 64 211 0.0 0.0 0.00 0.00 0.00 75 1017.6
20260509062755 64 210 0.0 0.0 0.00 0.00 0.00 75 1017.6
20260509062255 63 210 0.0 0.0 0.00 0.00 0.00 75 1017.5
20260509061754 63 208 0.0 0.0 0.00 0.00 0.00 76 1017.5
20260509061254 62 208 0.0 0.0 0.00 0.00 0.00 76 1017.5
20260509060754 62 208 0.0 0.0 0.00 0.00 0.00 76 1017.5
20260509060254 62 208 0.0 0.0 0.00 0.00 0.00 75 1017.5
20260509055754 61 208 0.0 0.0 0.00 0.00 0.00 75 1017.5
20260509055253 61 208 0.0 0.0 0.00 0.00 0.00 75 1017.5
20260509054753 60 213 0.0 0.0 0.00 0.00 0.00 74 1017.5
20260509054253 60 213 0.0 0.0 0.00 0.00 0.00 73 1017.5
20260509053753 59 213 0.0 0.0 0.00 0.00 0.00 73 1017.4
20260509053252 59 203 0.0 0.0 0.00 0.00 0.00 73 1017.4
20260509052752 59 202 0.0 0.0 0.00 0.00 0.00 72 1017.4
20260509052252 58 201 0.0 0.0 0.00 0.00 0.00 72 1017.3
20260509051752 58 201 0.0 0.0 0.00 0.00 0.00 71 1017.3
20260509051251 58 201 0.0 0.0 0.00 0.00 0.00 71 1017.3
20260509050751 57 201 0.0 0.0 0.00 0.00 0.00 71 1017.2
20260509050251 57 201 0.0 0.0 0.00 0.00 0.00 72 1017.1
20260509045751 57 201 0.0 0.0 0.00 0.00 0.00 71 1017.1
20260509045251 57 201 0.0 0.0 0.00 0.00 0.00 72 1017.0
20260509044750 57 201 0.0 0.0 0.00 0.00 0.00 72 1017.0
20260509044250 57 201 0.0 0.0 0.00 0.00 0.00 72 1016.9
20260509043750 57 201 0.0 0.0 0.00 0.00 0.00 72 1016.8
20260509043250 57 201 0.0 0.0 0.00 0.00 0.00 72 1016.8
20260509042749 57 201 0.0 0.0 0.00 0.00 0.00 73 1016.8
20260509042249 57 201 0.0 0.0 0.00 0.00 0.00 73 1016.8
20260509041749 57 201 0.0 0.0 0.00 0.00 0.00 73 1016.8
20260509041249 57 201 0.0 0.0 0.00 0.00 0.00 73 1016.7
20260509040748 57 201 0.0 0.0 0.00 0.00 0.00 73 1016.8
20260509040248 57 201 0.0 0.0 0.00 0.00 0.00 73 1016.8
20260509035748 57 201 0.0 0.0 0.00 0.00 0.00 73 1016.6
20260509035248 57 201 0.0 0.0 0.00 0.00 0.00 74 1016.6
20260509034748 57 201 0.0 0.0 0.00 0.00 0.00 74 1016.6
20260509034247 57 201 0.0 0.0 0.00 0.00 0.00 74 1016.6
20260509033747 57 201 0.0 0.0 0.00 0.00 0.00 74 1016.6
20260509033247 58 201 0.0 0.0 0.00 0.00 0.00 74 1016.6
20260509032747 58 201 0.0 0.0 0.00 0.00 0.00 74 1016.6
20260509032246 58 201 0.0 0.0 0.00 0.00 0.00 74 1016.5
20260509031746 58 201 0.0 0.0 0.00 0.00 0.00 74 1016.5
20260509031246 58 201 0.0 0.0 0.00 0.00 0.00 74 1016.5
20260509030746 58 201 0.0 0.0 0.00 0.00 0.00 74 1016.5
20260509030245 58 201 0.0 0.0 0.00 0.00 0.00 74 1016.6
20260509025745 58 201 0.0 0.0 0.00 0.00 0.00 74 1016.5
20260509025245 58 201 0.0 0.0 0.00 0.00 0.00 74 1016.7
20260509024745 59 201 0.0 0.0 0.00 0.00 0.00 74 1016.7
20260509024245 59 201 0.0 0.0 0.00 0.00 0.00 74 1016.7
20260509023744 59 201 0.0 0.0 0.00 0.00 0.00 74 1016.7
20260509023244 59 201 0.0 0.0 0.00 0.00 0.00 74 1016.7
20260509022744 59 201 0.0 0.0 0.00 0.00 0.00 74 1016.8
20260509022244 59 201 0.0 0.0 0.00 0.00 0.00 74 1016.7
20260509021743 59 201 0.0 0.0 0.00 0.00 0.00 75 1016.7
20260509021243 59 201 0.0 0.0 0.00 0.00 0.00 75 1016.7
20260509020743 59 201 0.0 0.0 0.00 0.00 0.00 75 1016.7
20260509020243 59 201 0.0 0.0 0.00 0.00 0.00 75 1016.7
20260509015742 59 201 0.0 0.0 0.00 0.00 0.00 75 1016.7
20260509015242 59 201 0.0 0.0 0.00 0.00 0.00 75 1016.6
20260509014742 59 201 0.0 0.0 0.00 0.00 0.00 75 1016.6
20260509014242 59 201 0.0 0.0 0.00 0.00 0.00 76 1016.6
20260509013742 60 201 0.0 0.0 0.00 0.00 0.00 76 1016.6
20260509013241 60 201 0.0 0.0 0.00 0.00 0.00 76 1016.5
20260509012741 60 201 0.0 0.0 0.00 0.00 0.00 76 1016.5
20260509012241 60 201 0.0 0.0 0.00 0.00 0.00 76 1016.5
20260509011741 60 201 0.0 0.0 0.00 0.00 0.00 76 1016.5
20260509011240 60 201 0.0 0.0 0.00 0.00 0.00 76 1016.4
20260509010740 60 201 0.0 0.0 0.00 0.00 0.00 76 1016.5
20260509010240 60 201 0.0 0.0 0.00 0.00 0.00 76 1016.5
20260509005740 60 201 0.0 0.0 0.00 0.00 0.00 76 1016.5
20260509005239 61 201 0.0 0.0 0.00 0.00 0.00 76 1016.4
20260509004739 61 201 0.0 0.0 0.00 0.00 0.00 76 1016.5
20260509004239 61 193 0.0 0.0 0.00 0.00 0.00 76 1016.5
20260509003739 61 183 0.0 0.0 0.00 0.00 0.00 76 1016.5
20260509003239 61 137 0.0 0.0 0.00 0.00 0.00 76 1016.5
20260509002738 61 137 0.0 0.0 0.00 0.00 0.00 76 1016.5
20260509002238 61 137 0.0 0.0 0.00 0.00 0.00 76 1016.4
20260509001738 62 137 0.0 0.0 0.00 0.00 0.00 76 1016.5
20260509001238 62 137 0.0 0.0 0.00 0.00 0.00 76 1016.5
20260509000737 62 137 0.0 0.0 0.00 0.00 0.00 76 1016.5
20260509000237 62 137 0.0 0.0 0.00 0.00 0.00 76 1016.5
20260508235737 62 137 0.0 0.0 0.00 0.00 0.00 76 1016.5
20260508235440 62 137 0.0 0.0 0.00 0.00 0.00 76 1016.5
20260508235237 62 137 0.0 0.0 0.00 0.00 0.00 76 1016.5
20260508234736 62 137 0.0 0.0 0.00 0.00 0.00 76 1016.5
20260508234236 62 137 0.0 0.0 0.00 0.00 0.00 76 1016.4
20260508233936 62 137 0.0 0.0 0.00 0.00 0.00 76 1016.4
20260508233736 62 137 0.0 0.0 0.00 0.00 0.00 76 1016.4
20260508233236 62 137 0.0 0.0 0.00 0.00 0.00 76 1016.4
20260508232736 62 137 0.0 0.0 0.00 0.00 0.00 76 1016.5
20260508232235 62 137 0.0 0.0 0.00 0.00 0.00 76 1016.5
20260508231735 62 137 0.0 0.0 0.00 0.00 0.00 76 1016.5
20260508231235 62 137 0.0 0.0 0.00 0.00 0.00 76 1016.6
20260508230735 63 137 0.0 0.0 0.00 0.00 0.00 76 1016.6
20260508230650 63 137 0.0 0.0 0.00 0.00 0.00 76 1016.6
20260508230234 63 137 0.0 0.0 0.00 0.00 0.00 76 1016.6
20260508225734 63 137 0.0 0.0 0.00 0.00 0.00 76 1016.6
20260508225234 63 137 0.0 0.0 0.00 0.00 0.00 76 1016.7
20260508224734 63 137 0.0 0.0 0.00 0.00 0.00 76 1016.6
20260508224237 63 137 0.0 0.0 0.00 0.00 0.00 75 1016.5
20260508224234 63 137 0.0 0.0 0.00 0.00 0.00 76 1016.6
20260508223733 63 137 0.0 0.0 0.00 0.00 0.00 75 1016.5
20260508223233 63 137 0.0 0.0 0.00 0.00 0.00 76 1016.6
20260508222925 63 137 0.0 0.0 0.00 0.00 0.00 76 1016.5
20260508222732 63 137 0.0 0.0 0.00 0.00 0.00 76 1016.5
20260508222232 63 137 0.0 0.0 0.00 0.00 0.00 76 1016.5
20260508221732 63 137 0.0 0.0 0.00 0.00 0.00 76 1016.5
20260508221426 63 137 0.0 0.0 0.00 0.00 0.00 76 1016.5
20260508221232 63 137 0.0 0.0 0.00 0.00 0.00 76 1016.5
20260508220809 63 137 0.0 0.0 0.00 0.00 0.00 75 1016.4
20260508220732 63 137 0.0 0.0 0.00 0.00 0.00 75 1016.4
20260508220231 63 137 0.0 0.0 0.00 0.00 0.00 75 1016.4
20260508220008 63 137 0.0 0.0 0.00 0.00 0.00 75 1016.4
20260508215731 63 137 0.0 0.0 0.00 0.00 0.00 75 1016.4
20260508215231 63 137 0.0 0.0 0.00 0.00 0.00 75 1016.5
20260508214731 63 137 0.0 0.0 0.00 0.00 0.00 75 1016.4
20260508214230 63 137 0.0 0.0 0.00 0.00 0.00 75 1016.4
20260508213730 63 137 0.0 0.0 0.00 0.00 0.00 75 1016.4
20260508213230 63 137 0.0 0.0 0.00 0.00 0.00 75 1016.4
20260508212802 63 137 0.0 0.0 0.00 0.00 0.00 75 1016.5
20260508212730 63 137 0.0 0.0 0.00 0.00 0.00 75 1016.5
20260508212229 63 137 0.0 0.0 0.00 0.00 0.00 75 1016.4
20260508211729 63 137 0.0 0.0 0.00 0.00 0.00 75 1016.3
20260508211229 63 137 0.0 0.0 0.00 0.00 0.00 75 1016.4
20260508210803 63 137 0.0 0.0 0.00 0.00 0.00 75 1016.3
20260508210304 63 136 0.0 0.0 0.00 0.00 0.00 75 1016.3
20260508210229 63 136 0.0 0.0 0.00 0.00 0.00 75 1016.3
20260508205936 64 126 0.0 0.0 0.00 0.00 0.00 75 1016.3
20260508205728 64 126 0.0 0.0 0.00 0.00 0.00 75 1016.3
20260508205306 64 127 0.0 0.0 0.00 0.00 0.00 74 1016.3
20260508205228 64 127 0.0 0.0 0.00 0.00 0.00 74 1016.3
20260508204728 63 126 0.0 0.0 0.00 0.00 0.00 74 1016.3
20260508204228 63 126 0.0 0.0 0.00 0.00 0.00 74 1016.3
20260508203848 63 125 0.0 0.0 0.00 0.00 0.00 74 1016.4
20260508203727 63 125 0.0 0.0 0.00 0.00 0.00 74 1016.4
20260508203227 64 126 0.0 0.0 0.00 0.00 0.00 74 1016.3
20260508202848 64 127 0.0 0.0 0.00 0.00 0.00 73 1016.4
20260508202727 64 127 0.0 0.0 0.00 0.00 0.00 73 1016.4
20260508202227 64 126 0.0 0.0 0.00 0.00 0.00 73 1016.4
20260508201726 64 126 0.0 0.0 0.00 0.00 0.00 73 1016.4
20260508201226 64 126 0.0 0.0 0.00 0.00 0.00 73 1016.4
20260508200726 64 125 0.0 0.0 0.00 0.00 0.00 73 1016.4
20260508200226 64 125 0.0 0.0 0.00 0.00 0.00 72 1016.3
20260508195725 64 126 0.0 0.0 0.00 0.00 0.00 72 1016.2
20260508195225 64 126 0.0 0.0 0.00 0.00 0.00 71 1016.1
20260508194725 64 127 0.0 0.0 0.00 0.00 0.00 71 1016.1
20260508194225 64 127 0.0 0.0 0.00 0.00 0.00 71 1016.1
20260508193725 65 126 0.0 0.0 0.00 0.00 0.00 71 1016.1
20260508193224 65 127 0.0 0.0 0.00 0.00 0.00 71 1016.0
20260508192724 65 125 0.0 0.0 0.00 0.00 0.00 71 1016.0
20260508192224 65 126 0.0 0.0 0.00 0.00 0.00 70 1015.8
20260508191724 65 126 0.0 0.0 0.00 0.00 0.00 70 1015.7
20260508191223 65 127 0.0 0.0 0.00 0.00 0.00 70 1015.6
20260508190723 65 126 0.0 0.0 0.00 0.00 0.00 70 1015.6
20260508190223 65 126 0.0 0.0 0.00 0.00 0.00 70 1015.5
20260508185723 65 126 0.0 0.0 0.00 0.00 0.00 69 1015.5
20260508185222 65 126 0.0 0.0 0.00 0.00 0.00 69 1015.4
20260508184722 65 126 0.0 0.0 0.00 0.00 0.00 69 1015.4
20260508184222 65 127 0.0 0.0 0.00 0.00 0.00 69 1015.3
20260508183721 65 126 0.0 0.0 0.00 0.00 0.00 69 1015.3
20260508183221 65 126 0.0 0.0 0.00 0.00 0.00 69 1015.2
20260508182220 65 127 0.0 0.0 0.00 0.00 0.00 69 1015.2
20260508181719 65 126 0.0 0.0 0.00 0.00 0.00 69 1015.2
20260508181219 65 126 0.0 0.0 0.00 0.00 0.00 69 1015.2
20260508180719 65 126 0.0 0.0 0.00 0.00 0.00 68 1015.2
20260508180219 65 127 0.0 0.0 0.00 0.00 0.00 68 1015.2
20260508175719 65 126 0.0 0.0 0.00 0.00 0.00 68 1015.1
20260508175218 65 127 0.0 0.0 0.00 0.00 0.00 68 1015.2
20260508174718 65 126 0.0 0.0 0.00 0.00 0.00 68 1015.1
20260508174218 65 122 0.0 0.0 0.00 0.00 0.00 68 1015.1
20260508173718 65 117 0.0 0.0 0.00 0.00 0.00 68 1015.0
20260508173217 65 117 0.0 0.0 0.00 0.00 0.00 68 1015.0
20260508172717 66 116 0.0 0.0 0.00 0.00 0.00 67 1015.0
20260508172217 65 117 0.0 0.0 0.00 0.00 0.00 66 1014.9
20260508171751 65 117 0.0 0.0 0.00 0.00 0.00 66 1014.9
20260508171717 65 117 0.0 0.0 0.00 0.00 0.00 66 1014.9
20260508171216 65 116 0.0 0.0 0.00 0.00 0.00 67 1014.9
20260508170716 66 116 0.0 0.0 0.00 0.00 0.00 68 1015.0
20260508170216 66 117 0.0 0.0 0.00 0.00 0.00 67 1014.9
20260508165716 66 120 2.0 0.0 0.00 0.00 0.00 67 1015.0
20260508165216 66 135 0.0 0.0 0.00 0.00 0.00 68 1015.0
20260508164715 66 135 0.0 0.0 0.00 0.00 0.00 67 1015.0
20260508164215 66 135 0.0 0.0 0.00 0.00 0.00 67 1015.0
20260508163715 66 58 0.0 0.0 0.00 0.00 0.00 68 1015.0
20260508163215 66 45 0.0 0.0 0.00 0.00 0.00 67 1014.9
20260508162714 66 41 0.0 0.0 0.00 0.00 0.00 66 1014.9
20260508162214 66 55 0.0 0.0 0.00 0.00 0.00 67 1014.9
20260508161714 66 93 1.0 0.0 0.00 0.00 0.00 67 1015.0
20260508161214 66 74 3.0 0.0 0.00 0.00 0.00 67 1015.0
20260508160713 66 56 0.0 0.0 0.00 0.00 0.00 68 1015.0
20260508160213 66 65 0.0 0.0 0.00 0.00 0.00 68 1015.0
20260508155713 66 73 0.0 0.0 0.00 0.00 0.00 68 1015.0
20260508155213 66 69 0.0 0.0 0.00 0.00 0.00 68 1015.0
20260508154243 66 61 0.0 0.0 0.00 0.00 0.00 68 1015.0
20260508154212 66 61 0.0 0.0 0.00 0.00 0.00 68 1015.0